Location: Bretagne
(43.8474°N, 0.4650°W)
Time: 04:26:47
(UTC+00:00)

Envisat - Pass Details

Date: 16 March 2026
Orbit: 761 x 762 km, 98.4° (Epoch: 17 April)

Event Time Altitude Azimuth Distance (km) Brightness Sun altitude
Rises 02:06:53 0° 20° (NNE) 3,234 7.0 -40.7°
Reaches altitude 10° 02:09:21 10° 29° (NNE) 2,303 6.1 -40.4°
Enters shadow 02:10:50 18° 38° (NE) 1,787 5.4 -40.2°
